KODAMA (DRTS)

Last updated on Mon Sep 04 2017 00:18:18 GMT+0000 (Coordinated Universal Time)

1 27516U 02042B 17246.22060050 -.00000265 00000-0 00000-0 0 9998 2 27516 5.1765 61.6423 0022795 159.4239 174.0173 0.99278336 13720
UTC large
Height (km)
Speed (km/s)
/
Latitude / Longitude
Inclination (degrees)
Orbital Period (minutes)
Azimuth
Elevation
Range (km)
Doppler Factor

Next 0 passes for location: London (51.5072 / 0.1276)

Sorry there are no passes over London.